This demonstration page uses our WeatherBlox Daily Observations layout. Learn more.

39.92423, -83.80882

Hourly Observations for January 21, 2020

Temp ( °F °C ) Dew Point ( °F °C ) Humidity (%) Winds ( mph kmh ) Pressure ( in mb ) Visibility ( mi km ) Precip ( " mm )
12:56 am 00:56 Clear 16 -8.9 14 -10 92 92 NNW 6 9 30.6 1036 10 16.0934 0 0
1:56 am 01:56 Clear 14 -10 12 -11.1 92 92 N 6 9 30.6 1036 10 16.0934 0 0
2:56 am 02:56 Clear 14 -10 12 -11.1 92 92 N 3 6 30.61 1037 10 16.0934 0 0
3:56 am 03:56 Clear 14 -10 12 -11.1 92 92 NNW 5 7 30.61 1037 10 16.0934 0 0
4:56 am 04:56 Partly Cloudy 13 -10.6 11 -11.7 92 92 NNW 5 7 30.63 1037 10 16.0934 0 0
5:03 am 05:03 Mostly Cloudy 12 -11 12 -11 100 100 NNW 5 7 30.67 1038 10 16.0934 0 0
5:56 am 05:56 Cloudy 14 -10 12 -11.1 92 92 Calm 30.63 1037 10 16.0934 0 0
6:26 am 06:26 Partly Cloudy 14 -10 12 -11 92 92 Calm 30.66 1038 10 16.0934 0 0
6:56 am 06:56 Mostly Cloudy 12 -11.1 10 -12.2 92 92 N 5 7 30.65 1038 10 16.0934 0 0
7:09 am 07:09 Partly Cloudy 12 -11 10 -12 92 92 N 3 6 30.69 1039 10 16.0934 0 0
7:56 am 07:56 Sunny 12 -11.1 10 -12.2 92 92 Calm 30.66 1038 10 16.0934 0 0
8:56 am 08:56 Mostly Cloudy 19 -7.2 15 -9.4 84 84 NE 6 9 30.67 1039 10 16.0934 0 0
9:30 am 09:30 Mostly Cloudy 19 -7 14 -10 79 79 NE 6 9 30.7 1040 10 16.0934 0 0
9:46 am 09:46 Partly Cloudy 21 -6 16 -9 80 80 NE 7 11 30.69 1039 9 14.48406 0.001 0.001
9:56 am 09:56 Sunny 21 -6.1 16 -8.9 81 81 NE 8 13 30.67 1039 10 16.0934 0.001 0.001
10:53 am 10:53 Mostly Cloudy 23 -5 16 -9 74 74 ENE 8 13 30.68 1039 10 16.0934 0.001 0.001
10:56 am 10:56 Mostly Cloudy 23 -5 15 -9.4 72 72 Calm 30.66 1038 10 16.0934 0.001 0.001
11:08 am 11:08 Partly Cloudy 23 -5 16 -9 74 74 NE 5 7 30.68 1039 10 16.0934 0 0
11:33 am 11:33 Mostly Cloudy 25 -4 16 -9 69 69 N 8 13 30.67 1039 10 16.0934 0 0
11:56 am 11:56 Cloudy 24 -4.4 15 -9.4 68 68 NNE 7 11 30.66 1038 10 16.0934 0 0
12:56 pm 12:56 Cloudy 25 -3.9 16 -8.9 69 69 NW 8 13 30.63 1037 10 16.0934 0 0
1:56 pm 13:56 Cloudy 24 -4.4 15 -9.4 68 68 Calm 30.61 1037 10 16.0934 0 0
2:56 pm 14:56 Mostly Cloudy 26 -3.3 16 -8.9 66 66 NE 5 7 30.59 1036 10 16.0934 0 0
3:10 pm 15:10 Partly Cloudy 27 -3 16 -9 64 64 NNW 6 9 30.6 1036 10 16.0934 0 0
3:56 pm 15:56 Sunny 26 -3.3 16 -8.9 66 66 NNE 3 6 30.58 1036 10 16.0934 0 0
4:56 pm 16:56 Sunny 25 -3.9 15 -9.4 66 66 Calm 30.58 1035 10 16.0934 0 0
5:56 pm 17:56 Clear 24 -4.4 16 -8.9 71 71 Calm 30.58 1036 10 16.0934 0 0
6:56 pm 18:56 Clear 23 -5 18 -7.8 81 81 SSE 3 6 30.58 1036 10 16.0934 0 0
7:56 pm 19:56 Clear 22 -5.6 18 -7.8 85 85 Calm 30.58 1036 10 16.0934 0 0
8:56 pm 20:56 Clear 18 -7.8 15 -9.4 88 88 Calm 30.58 1036 10 16.0934 0 0
9:56 pm 21:56 Clear 18 -7.8 16 -8.9 92 92 Calm 30.55 1035 10 16.0934 0 0
10:56 pm 22:56 Clear 16 -8.9 15 -9.4 96 96 SE 3 6 30.53 1034 10 16.0934 0 0
11:56 pm 23:56 Clear 15 -9.4 14 -10 95 95 SSE 5 7 30.52 1034 10 16.0934 0 0

Powered by AerisWeather